PBO Station Position Time Series. Reference Frame : NAM14
Format Version,1.1.0
4-character ID,LOZ1
Station name,LakeOzoniaNY2005
Begin Date, 2005-10-07
End Date, 2013-08-15
Release Date, 2021-02-19
Reference position, 44.6197077452 North Latitude, -74.5829327736 East Longitude, 443.96090 meters elevation,
Date, North (mm), East (mm), Vertical (mm), North Std. Deviation (mm), East Std. Deviation (mm),              Vertical Std. Deviation (mm), Quality,
2005-10-07,0.00, 0.00, -24.10, 6.07, 3.81, 30.69, repro,
2005-10-08,-3.95, -6.75, 4.08, 6.77, 4.43, 31.73, repro,
2005-10-09,-7.16, -9.36, 34.64, 7.31, 5.12, 37.00, repro,
2005-10-10,-8.47, -10.90, 44.39, 7.06, 5.23, 36.76, repro,
2005-10-11,-9.78, -12.38, 5.36, 7.88, 5.13, 39.36, repro,
2005-10-12,-13.40, -8.44, 32.93, 7.50, 5.10, 37.74, repro,
2005-10-13,-1.19, -9.06, -15.73, 7.65, 5.21, 38.70, repro,
2005-10-14,-5.58, -10.13, -0.40, 7.31, 5.00, 37.36, repro,
2005-10-15,-8.27, -6.33, 51.84, 7.87, 5.42, 40.70, repro,
2005-10-16,-1.17, -9.39, 15.37, 9.76, 5.63, 49.11, repro,
2005-10-17,-4.55, -9.05, 0.25, 8.66, 5.52, 42.52, repro,
2005-10-18,-10.83, -13.97, 36.80, 8.53, 5.68, 43.59, repro,
2005-10-19,-7.19, -13.18, 39.62, 8.22, 5.56, 41.02, repro,
2005-10-20,-4.32, -13.89, 6.90, 8.36, 5.27, 39.97, repro,
2005-10-21,-17.32, -13.33, 89.72, 7.39, 5.01, 37.56, repro,
2005-10-22,-7.19, -13.21, 49.30, 7.72, 5.72, 41.09, repro,
2005-10-23,-10.74, -11.61, -7.29, 8.43, 5.68, 43.65, repro,
2005-10-24,-15.43, -13.81, 53.68, 7.83, 5.41, 38.20, repro,
2005-10-25,7.30, -2.29, -28.38, 9.32, 6.03, 49.58, repro,
2005-10-26,-7.15, 2.32, -29.68, 10.85, 6.03, 55.48, repro,
2005-10-27,-4.86, -11.53, -27.75, 9.38, 5.87, 49.14, repro,
2005-10-28,-8.73, -6.73, 49.50, 9.76, 5.85, 50.96, repro,
2005-10-29,-10.43, -14.46, 44.70, 6.97, 5.20, 35.83, repro,
2005-10-30,-4.81, -6.02, -14.66, 6.97, 4.93, 36.21, repro,
2005-10-31,-5.59, -6.99, 2.13, 7.93, 5.60, 41.06, repro,
2005-11-01,11.01, -16.55, -27.45, 7.87, 5.39, 40.78, repro,
2005-11-02,-6.30, -9.57, 2.12, 8.97, 6.25, 47.94, repro,
2005-11-03,3.27, -15.92, -11.30, 8.60, 5.82, 44.18, repro,
2005-11-04,-12.51, -10.51, 54.90, 7.53, 5.37, 39.46, repro,
2005-11-05,-0.47, -7.15, 27.98, 7.05, 5.26, 36.47, repro,
2005-11-06,9.04, -6.49, -61.97, 9.31, 6.02, 47.38, repro,
2005-11-07,-5.04, -12.28, -0.16, 8.66, 5.91, 44.86, repro,
2005-11-08,-16.85, -16.98, 30.85, 10.39, 6.61, 55.25, repro,
2005-11-09,-0.82, -11.70, -6.60, 6.97, 5.22, 35.10, repro,
2005-11-10,-2.81, -8.01, -0.12, 8.63, 6.05, 44.48, repro,
2005-11-11,14.71, -3.21, -91.03, 6.97, 4.90, 35.76, repro,
2005-11-12,-5.96, -9.23, 11.14, 6.55, 4.62, 32.94, repro,
2005-11-13,7.18, -16.14, -56.73, 8.43, 5.56, 43.01, repro,
2005-11-14,-11.95, -10.90, 64.85, 8.54, 5.88, 45.08, repro,
2005-11-15,-3.12, -9.26, 27.69, 8.10, 5.40, 42.35, repro,
2005-11-16,4.24, -9.50, -26.63, 9.53, 6.25, 48.82, repro,
2005-11-17,-3.98, -13.97, 14.58, 9.39, 5.62, 46.44, repro,
2005-11-18,-8.40, -13.65, 3.64, 6.84, 5.05, 35.01, repro,
2005-11-19,-4.75, -7.80, 34.22, 6.45, 4.38, 30.79, repro,
2005-11-20,-10.06, -13.28, 39.20, 8.54, 5.54, 42.86, repro,
2005-11-21,-5.65, -12.92, 33.19, 10.18, 5.95, 49.77, repro,
2005-11-22,1.48, -9.38, -33.01, 7.95, 5.67, 41.90, repro,
2005-11-23,-8.41, -12.77, -6.19, 6.16, 4.46, 29.22, repro,
2005-11-24,-15.21, -11.53, 43.05, 6.75, 4.84, 33.35, repro,
2005-11-25,-6.81, -9.74, -29.49, 6.39, 4.56, 32.12, repro,
2005-11-26,-10.85, -12.33, -16.96, 6.86, 4.84, 35.41, repro,
2005-11-27,-4.75, -7.29, -10.09, 6.57, 4.55, 33.31, repro,
2005-11-28,3.75, -11.16, -42.78, 8.47, 5.49, 44.13, repro,
2005-11-29,2.10, -7.69, 53.66, 8.70, 5.49, 44.13, repro,
2005-11-30,-2.54, -14.99, -15.10, 8.83, 5.66, 44.20, repro,
2005-12-01,0.61, -7.67, -14.52, 7.73, 5.20, 38.48, repro,
2005-12-02,-1.50, -1.19, -27.81, 6.88, 4.79, 34.41, repro,
2005-12-03,-8.59, -9.85, -17.62, 6.25, 4.45, 30.34, repro,
2005-12-04,-18.02, -12.94, 38.95, 5.79, 4.19, 30.05, repro,
2005-12-05,-7.79, -6.49, -37.18, 6.55, 4.67, 32.97, repro,
2005-12-06,-14.24, -12.96, 35.81, 6.21, 4.26, 30.22, repro,
2005-12-07,-2.27, -11.62, -3.20, 5.73, 4.00, 28.44, repro,
2005-12-08,-4.58, -10.84, -21.62, 5.57, 4.04, 28.33, repro,
2005-12-09,-9.44, -13.01, 14.23, 5.75, 4.21, 28.23, repro,
2005-12-10,-4.82, -8.01, -2.26, 6.15, 4.36, 31.88, repro,
2005-12-11,-0.92, -10.28, -1.49, 6.23, 4.31, 31.41, repro,
2005-12-12,0.10, -7.35, -2.04, 5.68, 3.88, 28.33, repro,
2005-12-13,4.89, -9.27, -57.14, 5.85, 4.24, 29.56, repro,
2005-12-14,-3.07, -12.59, -8.69, 5.57, 3.90, 26.08, repro,
2005-12-15,-0.14, -8.68, -11.16, 6.02, 4.36, 29.81, repro,
2005-12-16,-5.95, -9.91, -25.64, 6.58, 4.98, 34.06, repro,
2005-12-17,4.20, -7.73, -121.97, 9.13, 6.16, 43.81, repro,
2005-12-18,4.25, -2.92, -120.06, 9.30, 6.24, 47.83, repro,
2005-12-19,11.24, -0.39, -149.34, 8.57, 5.49, 42.72, repro,
2005-12-20,1.75, -5.00, -97.80, 7.93, 5.30, 38.50, repro,
2005-12-21,5.53, -5.40, -118.98, 7.23, 5.31, 38.06, repro,
2005-12-22,6.65, -5.62, -139.92, 6.90, 5.12, 36.09, repro,
2005-12-23,12.09, -2.20, -195.41, 9.26, 6.56, 49.57, repro,
2005-12-24,13.83, -4.29, -142.86, 10.25, 6.44, 50.12, repro,
2005-12-25,5.05, -4.42, -17.30, 7.89, 5.21, 38.41, repro,
2005-12-26,-7.83, -7.35, -2.43, 7.43, 4.75, 35.63, repro,
2005-12-27,-11.72, -12.54, 3.73, 6.22, 4.72, 31.48, repro,
2005-12-28,-4.51, -6.74, 12.18, 6.09, 4.33, 29.80, repro,
2005-12-29,4.49, -2.86, -15.43, 8.08, 5.15, 39.43, repro,
2005-12-30,-3.65, -9.26, 24.46, 5.87, 4.28, 28.31, repro,
2005-12-31,8.43, -5.88, -64.00, 6.28, 4.17, 30.21, repro,
2006-01-01,-5.19, -10.41, -13.39, 6.11, 4.04, 29.14, repro,
2006-01-02,-8.55, -8.02, 29.87, 6.33, 4.44, 30.80, repro,
2006-01-03,-7.32, -7.69, 56.17, 6.28, 4.17, 30.89, repro,
2006-01-04,13.59, -4.40, -41.47, 6.58, 4.77, 32.32, repro,
2006-01-05,2.36, -5.93, -7.76, 6.96, 4.62, 34.51, repro,
2006-01-06,-4.39, -11.49, -8.75, 5.86, 4.29, 28.79, repro,
2006-01-07,5.98, -9.87, -29.39, 5.64, 4.10, 26.88, repro,
2006-01-08,-8.45, -7.39, 18.59, 6.05, 4.10, 29.72, repro,
2006-01-09,0.16, -2.53, -42.40, 7.23, 5.11, 36.06, repro,
2006-01-10,9.10, 2.65, -70.67, 7.29, 4.81, 33.88, repro,
2006-01-11,-6.94, -16.11, 30.35, 7.29, 5.00, 35.63, repro,
2006-01-12,-5.87, -7.70, 9.37, 9.39, 5.89, 45.62, repro,
2006-01-13,0.13, -6.40, -20.96, 7.28, 4.80, 36.37, repro,
2006-01-14,-16.96, -10.63, 57.54, 6.89, 4.65, 33.43, repro,
2006-01-15,0.08, -1.77, -8.82, 5.67, 3.88, 26.54, repro,
2006-01-16,0.53, -13.32, -20.62, 5.80, 3.97, 28.27, repro,
2006-01-17,-10.11, -12.89, -4.49, 6.53, 4.43, 30.71, repro,
2006-01-18,-1.13, -13.98, 3.07, 7.27, 5.10, 35.97, repro,
2006-01-19,-7.49, -10.62, 53.02, 7.15, 5.00, 36.14, repro,
2006-01-20,7.85, -3.52, -19.97, 8.01, 5.12, 38.05, repro,
2006-01-21,6.73, -5.69, -75.56, 7.74, 4.61, 37.17, repro,
2006-01-22,0.89, -7.18, -31.00, 5.77, 4.16, 28.13, repro,
2006-01-23,-1.25, -14.15, -1.37, 6.66, 4.62, 32.12, repro,
2006-01-24,-7.19, -12.26, 40.47, 7.08, 4.66, 34.03, repro,
2006-01-25,3.25, -9.16, -23.54, 7.30, 4.74, 37.75, repro,
2006-01-26,9.12, -8.86, -75.12, 5.53, 4.13, 28.55, repro,
2006-01-27,4.14, -5.79, -43.47, 5.80, 3.93, 28.69, repro,
2006-01-28,-5.09, -12.55, 13.40, 6.66, 4.75, 34.18, repro,
2006-01-29,-10.64, -13.40, 34.88, 7.84, 5.03, 39.54, repro,
2006-01-30,-2.55, -2.17, -22.99, 8.35, 5.05, 41.19, repro,
2006-01-31,-12.92, -9.52, 19.82, 7.33, 4.74, 36.66, repro,
2006-02-01,11.45, -3.85, -55.16, 6.29, 4.51, 32.09, repro,
2006-02-02,6.44, -8.88, -59.89, 7.09, 4.71, 36.36, repro,
2006-02-03,-9.14, -13.83, 40.68, 7.99, 5.54, 41.02, repro,
2006-02-04,2.17, -12.42, 21.76, 8.50, 5.64, 42.90, repro,
2006-02-05,6.95, -4.53, -30.51, 8.62, 5.34, 42.11, repro,
2006-02-06,2.07, -8.72, -21.74, 6.02, 4.39, 30.17, repro,
2006-02-07,10.51, -2.38, -90.02, 5.99, 4.17, 29.76, repro,
2006-02-08,-0.53, -9.65, -26.49, 6.20, 4.44, 33.03, repro,
2006-02-09,-4.07, -10.40, -16.25, 5.52, 3.98, 28.06, repro,
2006-02-10,-4.26, -6.26, -20.47, 5.79, 4.08, 27.81, repro,
2006-02-11,-6.80, -9.73, 20.40, 5.68, 4.02, 27.96, repro,
2006-02-12,-2.32, -11.22, 28.45, 5.34, 3.84, 26.99, repro,
2006-02-13,0.33, -10.15, 7.56, 5.78, 4.08, 29.77, repro,
2006-02-14,-7.66, -8.64, 41.64, 6.47, 4.33, 32.35, repro,
2006-02-15,2.45, -4.59, -8.51, 7.53, 5.20, 40.09, repro,
2006-02-16,-0.08, -6.36, -17.75, 7.14, 4.50, 35.45, repro,
2006-02-17,6.18, -3.54, -58.66, 6.74, 4.66, 34.08, repro,
2006-02-18,6.24, -4.44, -41.78, 5.76, 3.90, 29.04, repro,
2006-02-19,0.98, -5.05, -39.73, 5.89, 4.05, 30.40, repro,
2006-02-20,-3.67, -8.85, 14.42, 5.97, 4.16, 31.31, repro,
2006-02-21,3.99, -6.47, -34.74, 6.13, 4.37, 32.65, repro,
2006-02-22,-0.18, -4.61, -22.99, 6.88, 4.66, 36.79, repro,
2006-02-23,-5.41, -7.06, 17.40, 6.46, 4.36, 33.03, repro,
2006-02-24,-1.56, -10.35, 7.93, 5.65, 4.22, 30.40, repro,
2006-02-25,5.92, -8.36, -40.44, 5.57, 3.86, 28.97, repro,
2006-02-26,8.09, -1.76, -98.14, 5.73, 4.03, 29.97, repro,
2006-02-27,-1.88, -9.04, -1.27, 5.03, 3.79, 25.81, repro,
2006-02-28,-2.93, -5.86, 1.56, 5.28, 3.85, 27.80, repro,
2006-03-01,-4.61, -6.93, 7.58, 5.55, 3.92, 29.64, repro,
2006-03-02,-9.67, -6.00, 25.17, 5.44, 3.87, 28.98, repro,
2006-03-03,-1.78, -8.92, -3.91, 5.83, 4.47, 30.98, repro,
2006-03-04,3.55, -3.94, -32.95, 5.68, 3.95, 28.76, repro,
2006-03-05,-8.40, -11.61, 20.64, 5.68, 4.02, 29.22, repro,
2006-03-06,-5.94, -12.49, 19.99, 5.74, 4.29, 31.15, repro,
2006-03-07,-4.30, -7.21, -2.75, 5.74, 4.09, 30.21, repro,
2006-03-08,-0.19, -8.75, -15.56, 5.77, 4.25, 30.99, repro,
2006-03-09,-8.62, -9.71, 29.27, 7.79, 4.80, 39.73, repro,
2006-03-10,-7.53, -2.78, 39.03, 8.42, 5.15, 42.99, repro,
2006-03-11,5.29, 6.92, -6.51, 8.85, 5.27, 44.19, repro,
2006-03-12,-1.88, -3.70, -30.97, 9.15, 5.25, 44.29, repro,
2006-03-13,-1.83, -9.29, -6.30, 9.00, 5.43, 45.07, repro,
2006-03-14,-0.12, -8.71, -2.80, 7.05, 5.04, 35.76, repro,
2006-03-15,-2.89, -13.30, -1.63, 6.36, 4.43, 32.19, repro,
2006-03-16,-4.30, -4.09, -4.10, 6.49, 4.31, 32.33, repro,
2006-03-17,0.20, -3.22, -20.84, 5.93, 4.04, 29.87, repro,
2006-03-18,3.68, -4.03, -36.33, 5.57, 3.84, 27.85, repro,
2006-03-19,-2.02, -7.13, -16.95, 6.01, 4.12, 30.19, repro,
2006-03-20,-1.04, -6.40, -22.90, 5.66, 3.79, 27.19, repro,
2006-03-21,-1.05, -8.90, -13.10, 5.86, 3.71, 28.48, repro,
2006-03-22,-3.61, -3.98, 6.81, 6.12, 3.95, 29.59, repro,
2006-03-23,-3.08, -6.15, -10.50, 6.87, 4.54, 34.96, repro,
2006-03-24,3.72, 1.76, -58.43, 7.61, 4.70, 36.60, repro,
2006-03-25,-5.49, -6.11, -4.85, 8.34, 5.28, 40.42, repro,
2006-03-26,-10.20, -9.62, 33.86, 7.93, 4.94, 38.26, repro,
2006-03-27,-5.68, -6.15, 23.44, 7.73, 4.75, 36.17, repro,
2006-03-28,4.33, -1.99, -30.20, 7.17, 4.69, 36.60, repro,
2006-03-29,5.18, -7.84, -16.46, 7.59, 4.76, 37.33, repro,
2006-03-30,6.28, -9.85, -42.93, 7.66, 4.94, 37.04, repro,
2006-03-31,-7.79, -7.79, 34.21, 7.79, 4.97, 38.39, repro,
2006-04-01,29.40, 9.83, -108.61, 13.11, 7.39, 62.90, repro,
2006-04-02,-3.52, -4.14, 13.01, 7.24, 4.86, 36.97, repro,
2006-04-03,-1.68, -5.00, -3.77, 6.88, 4.70, 34.66, repro,
2006-04-04,8.94, 0.38, -79.59, 7.92, 4.92, 38.32, repro,
2006-04-05,3.86, 0.16, -24.13, 7.70, 5.06, 38.65, repro,
2006-04-06,-3.10, -5.87, -11.67, 7.45, 4.83, 37.39, repro,
2006-04-07,-6.41, -5.47, 40.75, 8.13, 4.95, 38.90, repro,
2006-04-08,-7.93, -9.15, 39.63, 6.55, 4.52, 34.06, repro,
2006-04-09,1.99, -9.83, -26.70, 6.08, 4.24, 31.38, repro,
2006-04-10,-4.48, -6.48, 16.28, 7.21, 4.74, 37.99, repro,
2006-04-11,-11.27, -11.72, 48.66, 6.96, 4.62, 35.38, repro,
2006-04-12,5.18, -6.87, -15.48, 7.53, 4.96, 37.24, repro,
2006-04-13,1.75, -0.04, -22.43, 7.78, 5.10, 39.11, repro,
2006-04-14,-4.25, -1.75, 16.37, 7.46, 4.81, 36.86, repro,
2006-04-15,6.05, -5.82, -32.57, 7.82, 4.97, 38.22, repro,
2006-04-16,-7.18, -9.02, 33.10, 7.69, 4.81, 37.20, repro,
2006-04-17,-14.69, -14.49, 69.03, 7.38, 4.67, 37.20, repro,
2006-04-18,5.60, 0.69, -12.71, 8.12, 5.10, 38.75, repro,
2006-04-19,-3.22, -4.96, 19.07, 7.51, 4.63, 37.19, repro,
2006-04-20,9.19, -6.94, -49.32, 7.67, 4.70, 37.38, repro,
2006-04-21,-1.05, -4.69, -16.89, 7.32, 4.57, 34.88, repro,
2006-04-22,-1.65, -4.26, 6.74, 8.29, 5.48, 42.65, repro,
2006-04-23,7.63, -2.68, -32.73, 7.56, 4.93, 38.24, repro,
2006-04-24,0.03, -1.70, -28.56, 8.14, 4.79, 41.32, repro,
2006-04-25,-0.70, -9.45, 13.23, 7.72, 4.94, 38.84, repro,
2006-04-26,2.29, -7.84, -4.52, 7.64, 4.90, 39.45, repro,
2006-04-27,-7.50, -8.49, 48.04, 6.76, 4.59, 35.64, repro,
2006-04-28,-0.81, -9.23, -0.08, 6.78, 4.44, 34.81, repro,
2006-04-29,-1.63, -6.81, -3.38, 7.03, 4.48, 35.02, repro,
2006-04-30,-2.19, -6.42, -3.39, 7.48, 4.56, 36.73, repro,
2006-05-01,-11.05, -11.06, 51.64, 6.65, 4.47, 34.09, repro,
2006-05-02,2.59, -7.67, 1.45, 7.24, 4.66, 36.71, repro,
2006-05-03,-9.53, -9.40, 57.64, 7.59, 4.76, 37.40, repro,
2006-05-04,-7.94, -13.34, 23.39, 7.83, 4.92, 38.31, repro,
2006-05-05,-3.77, -9.42, 37.18, 7.79, 4.91, 38.63, repro,
2006-05-06,-0.99, -6.72, -13.44, 6.98, 4.38, 35.30, repro,
2006-05-07,0.39, -4.07, -40.17, 4.95, 3.23, 23.90, repro,
2006-05-08,4.76, -1.94, -36.22, 5.17, 3.35, 24.58, repro,
2006-05-09,-0.34, -6.23, -4.42, 5.21, 3.31, 23.63, repro,
2006-05-10,-9.35, -9.50, 40.82, 4.85, 3.22, 23.11, repro,
2006-05-11,-10.30, -7.70, 60.17, 5.36, 3.81, 25.72, repro,
2006-05-12,-11.16, -3.93, 45.19, 5.53, 3.55, 27.59, repro,
2006-05-13,-8.13, -9.63, 23.01, 5.18, 3.50, 25.19, repro,
2006-05-14,-3.17, -10.77, 2.62, 5.09, 3.37, 24.73, repro,
2006-05-15,7.17, -7.00, -44.90, 5.40, 3.48, 27.42, repro,
2006-05-16,-5.62, -4.65, 6.70, 4.82, 3.65, 23.21, repro,
2006-05-17,-4.15, -6.75, 26.87, 5.88, 3.89, 28.43, repro,
2006-05-18,-7.00, -11.61, 18.99, 5.47, 3.64, 26.23, repro,
2006-05-19,-7.54, -6.65, 31.00, 5.27, 3.59, 24.60, repro,
2006-05-20,1.44, -3.40, -11.70, 7.01, 4.57, 35.92, repro,
2006-05-21,-4.57, -7.31, 27.86, 5.95, 4.14, 28.63, repro,
2006-05-22,-11.10, -5.56, 57.79, 6.14, 4.38, 30.98, repro,
2006-05-23,-16.27, -17.02, 56.81, 5.47, 3.77, 26.82, repro,
2006-05-24,-5.24, -12.25, 2.72, 5.34, 3.79, 26.82, repro,
2006-05-25,-7.28, -3.38, 9.73, 5.76, 4.17, 28.52, repro,
2006-05-26,2.51, -1.14, -25.67, 5.13, 3.86, 24.51, repro,
2006-05-27,-13.76, -9.80, 56.94, 5.43, 3.81, 26.48, repro,
2006-05-28,-5.30, -9.40, 11.24, 5.47, 3.52, 25.35, repro,
2006-05-29,-1.40, -6.97, 23.30, 5.92, 4.16, 28.96, repro,
2006-05-30,-4.71, -10.62, 15.12, 5.07, 3.55, 23.77, repro,
2006-05-31,-4.88, -5.97, 26.31, 5.99, 4.21, 28.86, repro,
2006-06-01,-3.16, -5.72, 8.56, 6.59, 4.34, 31.46, repro,
2006-06-02,-11.55, -13.27, 20.49, 7.41, 4.56, 35.24, repro,
2006-06-03,-12.25, -8.24, 73.50, 6.99, 4.47, 33.50, repro,
2006-06-04,4.78, -7.38, -9.54, 7.02, 4.33, 32.35, repro,
2006-06-05,-0.14, -0.29, -16.80, 6.13, 4.40, 29.77, repro,
2006-06-06,-0.45, 1.93, -35.44, 5.92, 3.81, 26.95, repro,
2006-06-07,-12.49, -7.06, 41.93, 5.77, 3.66, 25.86, repro,
2006-06-08,-9.27, -7.55, -31.85, 5.42, 3.80, 25.81, repro,
2006-06-09,-15.62, -3.53, 34.40, 6.41, 4.04, 30.50, repro,
2006-06-10,17.28, -10.97, -61.03, 10.28, 5.34, 47.37, repro,
2006-06-11,3.36, -14.97, -4.50, 8.80, 5.12, 40.28, repro,
2006-06-12,-2.72, -3.31, -4.39, 7.27, 4.40, 34.35, repro,
2006-06-13,-6.59, -10.12, 37.95, 5.92, 4.14, 26.10, repro,
2006-06-14,-9.55, -5.13, -11.22, 6.60, 4.42, 31.76, repro,
2006-06-15,1.59, -8.64, -32.60, 6.01, 3.94, 27.30, repro,
2006-06-16,1.65, -8.78, -25.39, 5.85, 3.99, 28.13, repro,
2006-06-17,-13.27, -10.32, 39.82, 6.84, 4.15, 32.58, repro,
2006-06-18,1.95, -12.09, -37.24, 7.94, 4.84, 37.55, repro,
2006-06-19,9.80, -7.65, -46.10, 7.73, 4.47, 33.45, repro,
2006-06-20,-4.87, -2.27, -8.04, 7.22, 4.86, 35.46, repro,
2006-06-21,-1.66, -5.67, 4.26, 6.40, 3.75, 27.47, repro,
2006-06-22,-11.54, -19.30, 41.52, 7.91, 4.45, 35.32, repro,
2006-06-23,-20.21, -14.84, 67.35, 5.79, 3.95, 25.35, repro,
2006-06-24,-3.15, -2.71, -6.02, 6.15, 3.87, 27.03, repro,
2006-06-25,4.42, -5.88, -21.25, 6.45, 3.78, 27.85, repro,
2006-06-26,-8.98, -6.57, 18.98, 5.90, 4.15, 28.63, repro,
2006-06-27,6.65, -9.21, -40.68, 7.57, 4.79, 35.86, repro,
2006-06-28,-14.71, -18.50, 79.90, 7.67, 4.41, 33.26, repro,
2006-06-29,-17.36, -18.44, 87.50, 7.22, 4.38, 33.59, repro,
2006-06-30,-22.93, -12.94, 58.70, 6.92, 4.17, 33.24, repro,
2006-07-01,-8.84, -6.95, 2.84, 6.58, 4.34, 34.25, repro,
2006-07-02,-13.22, -11.22, 46.01, 7.77, 4.83, 39.46, repro,
2006-07-03,-5.24, -5.99, 20.80, 6.06, 3.96, 29.46, repro,
2006-07-04,-1.84, -14.51, 24.86, 7.14, 4.40, 36.13, repro,
2006-07-05,-6.38, -10.67, -10.45, 7.24, 4.37, 37.31, repro,
2006-07-06,-8.22, -2.95, 3.89, 5.28, 3.31, 25.32, repro,
2006-07-07,2.94, -3.58, -35.24, 6.15, 3.83, 28.98, repro,
2006-07-08,-9.41, -13.15, 28.42, 6.08, 3.75, 29.16, repro,
2006-07-09,-16.09, -10.80, 70.80, 6.90, 4.19, 34.46, repro,
2006-07-10,-15.79, -17.78, 64.29, 6.57, 4.02, 32.58, repro,
2006-07-11,-18.71, -10.14, 74.71, 6.42, 4.37, 32.64, repro,
2006-07-12,-13.92, -5.93, 24.58, 5.71, 3.80, 28.24, repro,
2006-07-13,5.58, -6.09, -23.98, 7.07, 4.24, 34.37, repro,
2006-07-14,-14.17, -9.76, 87.33, 6.90, 4.09, 33.01, repro,
2006-07-15,-2.50, -4.99, 22.94, 6.89, 4.01, 33.39, repro,
2006-07-16,-4.90, -8.76, 17.18, 6.41, 4.40, 33.21, repro,
2006-07-17,-9.51, 3.23, 37.75, 7.22, 4.37, 35.64, repro,
2006-07-18,-3.47, -13.74, -5.59, 6.40, 4.02, 32.65, repro,
2006-07-19,4.37, -7.68, -26.17, 6.15, 3.81, 29.47, repro,
2006-07-20,-3.69, -5.55, 13.42, 6.25, 4.16, 30.72, repro,
2006-07-21,-12.31, -13.99, 34.78, 7.24, 4.42, 35.62, repro,
2006-07-22,-2.55, -10.79, -27.15, 5.77, 3.50, 27.01, repro,
2006-07-23,-13.17, -8.07, 51.76, 7.10, 4.18, 35.31, repro,
2006-07-24,-16.61, -12.52, 74.13, 6.07, 3.71, 29.73, repro,
2006-07-25,-12.68, -13.52, 35.86, 7.32, 4.18, 36.09, repro,
2006-07-26,-10.10, -13.11, 8.69, 6.87, 4.23, 34.00, repro,
2006-07-27,-0.99, -8.69, -30.00, 7.45, 4.31, 36.21, repro,
2006-07-28,-7.68, -3.10, 42.03, 6.24, 3.88, 30.04, repro,
2006-07-29,-4.99, -11.57, 28.66, 6.85, 4.31, 33.70, repro,
2006-07-30,-12.73, -12.74, 59.54, 6.52, 3.95, 32.08, repro,
2006-07-31,-8.73, -5.44, 27.62, 6.43, 3.66, 30.39, repro,
2006-08-01,-9.20, -16.69, 34.50, 8.38, 4.69, 42.05, repro,
2006-08-02,-5.80, -6.97, 10.44, 7.39, 4.24, 35.03, repro,
2006-08-03,-10.22, -8.87, 15.77, 7.19, 4.32, 34.13, repro,
2006-08-04,-7.73, -8.14, 51.33, 7.05, 4.16, 31.85, repro,
2006-08-05,-7.38, -11.09, 14.38, 6.89, 4.19, 32.43, repro,
2006-08-06,2.11, -3.74, -32.09, 6.09, 3.91, 29.47, repro,
2006-08-07,-7.62, -8.35, 33.02, 8.33, 5.18, 42.05, repro,
2006-08-08,-7.76, -9.95, 34.10, 6.14, 3.71, 29.22, repro,
2006-08-09,-11.71, -4.76, 44.47, 5.99, 3.45, 28.00, repro,
2006-08-10,-10.98, -12.91, -2.76, 5.91, 4.20, 28.69, repro,
2006-08-11,-12.23, -4.96, 21.41, 6.13, 4.34, 30.94, repro,
2006-08-12,-1.87, -3.11, -11.76, 5.80, 3.91, 27.78, repro,
2006-08-13,-10.31, -16.74, 17.56, 6.24, 3.78, 29.58, repro,
2006-08-14,-3.18, -9.63, 11.57, 6.79, 4.03, 31.64, repro,
2006-08-15,-10.40, -17.48, 32.80, 7.35, 4.74, 37.55, repro,
2006-08-16,-10.25, -7.35, 34.02, 6.31, 3.91, 29.84, repro,
2006-08-17,-7.66, -10.04, 9.99, 5.23, 3.50, 24.41, repro,
2006-08-18,-19.07, -13.93, 70.24, 6.27, 3.76, 28.98, repro,
2006-08-19,-12.62, -17.33, 40.51, 5.57, 4.15, 27.02, repro,
2006-08-20,-6.86, -5.91, 19.04, 6.71, 4.35, 32.29, repro,
2006-08-21,-14.47, -11.88, 25.79, 7.29, 4.32, 35.51, repro,
2006-08-22,-19.07, -9.22, 64.74, 6.55, 3.83, 30.42, repro,
2006-08-23,-8.20, -14.07, 30.93, 5.87, 3.79, 28.01, repro,
2006-08-24,-2.95, -8.31, -10.59, 5.87, 4.08, 28.60, repro,
2006-08-25,-18.20, -13.96, 98.82, 5.55, 3.63, 24.82, repro,
2006-08-26,-9.95, -11.62, 18.98, 6.08, 3.97, 28.50, repro,
2006-08-27,-8.52, -10.81, 20.81, 8.27, 4.62, 38.95, repro,
2006-08-28,0.76, -8.50, -1.27, 5.87, 3.87, 26.18, repro,
2006-08-29,-7.25, -12.69, 12.58, 5.88, 3.79, 26.78, repro,
2006-08-30,-21.88, -9.41, 102.95, 5.72, 3.55, 26.78, repro,
2006-08-31,-8.52, -10.71, 41.06, 6.01, 3.41, 25.49, repro,
2006-09-01,-1.20, -15.73, 11.20, 6.31, 3.78, 27.62, repro,
2006-09-02,0.46, -10.32, 61.34, 6.15, 3.88, 26.77, repro,
2006-09-03,-3.66, -12.79, 41.43, 6.64, 4.09, 31.11, repro,
2006-09-04,-24.70, -17.35, 122.91, 6.88, 3.91, 31.60, repro,
2006-09-05,-18.64, -16.06, 57.09, 6.93, 4.14, 30.95, repro,
2006-09-06,-15.17, -20.55, 58.13, 7.56, 4.00, 34.02, repro,
2006-09-07,-5.82, -11.09, 43.63, 5.89, 3.75, 26.66, repro,
2006-09-08,-2.66, -9.23, 29.76, 7.91, 4.01, 34.41, repro,
2006-09-09,-17.16, -17.42, 72.03, 6.49, 4.31, 32.23, repro,
2006-09-10,-15.98, -6.96, 55.00, 5.74, 3.66, 28.57, repro,
2006-09-11,5.25, -8.05, -43.46, 6.34, 4.14, 30.57, repro,
2006-09-12,-2.66, -11.25, 15.04, 5.43, 3.32, 24.32, repro,
2006-09-13,-4.26, -10.45, 0.26, 6.82, 3.89, 31.74, repro,
2006-09-14,-17.15, -6.63, 66.87, 6.76, 4.63, 32.99, repro,
2006-09-15,-6.30, -6.34, 55.64, 6.70, 4.21, 31.64, repro,
2006-09-16,-14.42, -10.61, 26.47, 5.90, 3.77, 28.48, repro,
2006-09-17,-14.75, -10.52, 71.10, 6.91, 3.66, 30.62, repro,
2006-09-18,-17.75, -17.37, 60.87, 6.87, 4.52, 32.33, repro,
2006-09-19,-0.33, -8.50, -37.26, 6.77, 3.80, 31.72, repro,
2006-09-20,-14.88, -10.75, 65.77, 6.29, 3.71, 29.19, repro,
2006-09-21,-15.21, -13.99, 59.15, 6.98, 3.73, 32.22, repro,
2006-09-22,-2.01, -9.59, -2.41, 5.77, 3.55, 27.27, repro,
2006-09-23,-0.59, -4.36, -24.42, 6.06, 3.78, 28.73, repro,
2006-09-24,8.90, -14.06, -34.14, 7.91, 4.37, 36.52, repro,
2006-09-25,-13.96, -9.57, 62.97, 5.94, 3.55, 27.72, repro,
2006-09-26,-12.91, -8.17, 57.73, 5.97, 4.13, 31.12, repro,
2006-09-27,-13.06, -6.73, 57.49, 5.90, 3.73, 27.57, repro,
2006-09-28,-9.53, -11.85, 22.97, 6.75, 4.10, 34.34, repro,
2006-09-29,0.43, -7.33, -18.39, 8.20, 4.89, 40.93, repro,
2006-09-30,-5.21, -12.32, 14.96, 5.69, 3.48, 27.08, repro,
2006-10-01,-11.51, -11.24, 26.69, 5.94, 3.65, 27.55, repro,
2006-10-02,-13.95, -5.93, 57.07, 5.24, 3.32, 25.31, repro,
2006-10-03,-10.23, -4.13, 18.94, 6.22, 3.73, 29.46, repro,
2006-10-04,-11.07, -10.31, -2.26, 6.29, 3.99, 31.26, repro,
2006-10-05,-8.08, -13.85, 11.08, 5.41, 3.47, 25.56, repro,
2006-10-06,-15.31, -11.82, 53.83, 5.35, 3.50, 26.31, repro,
2006-10-07,-9.67, -7.15, 30.18, 5.53, 3.48, 25.23, repro,
2006-10-08,-13.79, -4.03, 39.23, 5.62, 3.17, 24.19, repro,
2006-10-09,-5.56, -11.42, 2.00, 5.75, 3.53, 26.82, repro,
2006-10-10,-3.75, -13.56, 20.96, 4.82, 3.27, 21.69, repro,
2006-10-11,-11.12, -16.52, 42.37, 6.19, 3.75, 30.50, repro,
2006-10-12,-13.03, -3.08, 24.62, 5.25, 3.49, 25.02, repro,
2006-10-13,1.34, -4.44, -31.20, 4.69, 3.12, 23.13, repro,
2006-10-14,-16.91, -12.49, 61.69, 5.67, 3.43, 28.05, repro,
2006-10-15,-6.02, -11.52, 20.54, 5.42, 3.35, 26.03, repro,
2006-10-16,-10.06, -14.82, 46.01, 4.73, 2.97, 22.47, repro,
2006-10-17,7.11, -7.98, -52.59, 5.54, 3.44, 27.59, repro,
2006-10-18,1.33, -4.37, -0.27, 5.92, 3.63, 29.13, repro,
2006-10-19,-7.07, -4.77, 0.86, 5.93, 3.56, 29.48, repro,
2006-10-20,-22.03, -8.50, 86.76, 5.70, 3.24, 27.27, repro,
2006-10-21,2.39, 10.73, -56.18, 8.97, 5.50, 39.57, repro,
2007-04-27,-9.38, -9.58, 10.22, 8.80, 4.98, 41.54, repro,
2007-04-28,1.61, -7.35, -19.55, 5.45, 3.50, 26.10, repro,
2007-04-29,-8.27, -9.65, 44.33, 5.40, 3.53, 25.82, repro,
2007-04-30,2.93, -11.92, -16.52, 5.75, 3.81, 27.71, repro,
2007-05-01,-1.99, -3.98, -3.14, 5.43, 3.88, 27.09, repro,
2007-05-02,-10.63, -4.03, 51.37, 5.80, 4.01, 30.47, repro,
2007-05-03,2.64, -4.03, -60.36, 5.52, 4.57, 26.69, repro,
2007-05-04,2.61, -8.82, -34.74, 4.87, 3.58, 23.64, repro,
2007-05-05,-2.71, -8.00, 1.64, 5.25, 3.39, 24.78, repro,
2007-05-06,-6.27, -11.40, 21.21, 4.72, 3.40, 22.27, repro,
2007-05-07,-11.53, -8.82, 34.55, 5.32, 3.96, 26.23, repro,
2007-05-08,-5.78, -6.44, 31.31, 5.43, 3.93, 26.93, repro,
2007-05-09,-8.52, -10.45, 41.90, 5.39, 3.67, 26.53, repro,
2007-05-10,6.00, -13.30, -28.18, 5.11, 5.08, 25.06, repro,
2007-05-11,-2.05, -15.74, 0.82, 5.99, 5.00, 30.60, repro,
2007-05-12,-13.50, -14.38, 47.74, 5.28, 3.48, 24.42, repro,
2007-05-13,-1.94, -11.30, -31.00, 6.60, 5.54, 33.06, repro,
2007-05-15,1.44, -3.34, -24.24, 6.79, 5.26, 35.09, repro,
2007-05-16,8.93, -6.14, -54.12, 6.69, 4.36, 34.86, repro,
2007-05-17,-9.20, -16.00, 4.50, 5.30, 3.64, 25.36, repro,
2007-05-18,-5.79, -8.14, 1.02, 5.16, 3.56, 24.98, repro,